| time (UTC) | temp F | wind direction | speed MPH | gust MPH | rain 1hr in | rain 24hr in | rain mn in | humidity % | barometer mb |
| 20260831050924 | 58 | 0 | 0.0 | 0.0 | 0.00 | 0.11 | 0.11 | 99 | 999.0 |
| 20260831050003 | 58 | 0 | 0.0 | 0.0 | 0.00 | 0.11 | 0.11 | 99 | 999.2 |
| 20260831045403 | 58 | 0 | 0.0 | 0.0 | 0.00 | 0.11 | 0.11 | 99 | 999.1 |
| 20260831044503 | 58 | 0 | 0.0 | 0.0 | 0.00 | 0.11 | 0.11 | 99 | 998.9 |
| 20260831043605 | 58 | 0 | 0.0 | 0.0 | 0.00 | 0.11 | 0.11 | 99 | 999.1 |
| 20260831042703 | 57 | 0 | 0.0 | 0.0 | 0.00 | 0.11 | 0.11 | 99 | 998.9 |
| 20260831041805 | 58 | 90 | 0.0 | 2.0 | 0.00 | 0.11 | 0.11 | 99 | 999.0 |
| 20260831040903 | 58 | 90 | 0.0 | 2.0 | 0.00 | 0.11 | 0.11 | 99 | 998.9 |
| 20260831040024 | 58 | 0 | 0.0 | 0.0 | 0.00 | 0.11 | 0.11 | 99 | 998.8 |
| 20260831035406 | 58 | 0 | 0.0 | 0.0 | 0.00 | 0.11 | 0.11 | 99 | 998.8 |
| 20260831034503 | 58 | 0 | 0.0 | 0.0 | 0.00 | 0.11 | 0.11 | 99 | 998.7 |
| 20260831033603 | 58 | 0 | 0.0 | 0.0 | 0.00 | 0.11 | 0.11 | 99 | 998.8 |
| 20260831032725 | 58 | 0 | 0.0 | 0.0 | 0.00 | 0.11 | 0.11 | 99 | 998.7 |
| 20260831031824 | 58 | 0 | 0.0 | 0.0 | 0.00 | 0.11 | 0.11 | 99 | 998.5 |
| 20260831030905 | 58 | 0 | 0.0 | 0.0 | 0.00 | 0.11 | 0.11 | 99 | 998.6 |
| 20260831030003 | 58 | 0 | 0.0 | 0.0 | 0.00 | 0.11 | 0.11 | 99 | 998.4 |
| 20260831025403 | 58 | 0 | 0.0 | 0.0 | 0.00 | 0.11 | 0.11 | 99 | 998.4 |
| 20260831024503 | 58 | 0 | 0.0 | 0.0 | 0.00 | 0.11 | 0.11 | 99 | 998.6 |
| 20260831023603 | 57 | 0 | 0.0 | 0.0 | 0.00 | 0.11 | 0.11 | 99 | 998.6 |
| 20260831022703 | 58 | 0 | 0.0 | 0.0 | 0.00 | 0.11 | 0.11 | 99 | 998.6 |
| 20260831021803 | 58 | 0 | 0.0 | 0.0 | 0.01 | 0.11 | 0.11 | 99 | 998.8 |
| 20260831020903 | 58 | 0 | 0.0 | 0.0 | 0.02 | 0.11 | 0.11 | 99 | 998.7 |
| 20260831020003 | 58 | 0 | 0.0 | 0.0 | 0.04 | 0.11 | 0.11 | 99 | 998.6 |
| 20260831015403 | 58 | 0 | 0.0 | 0.0 | 0.05 | 0.11 | 0.11 | 99 | 998.7 |
| 20260831014505 | 58 | 0 | 0.0 | 0.0 | 0.06 | 0.11 | 0.11 | 99 | 998.8 |
| 20260831013603 | 58 | 0 | 0.0 | 0.0 | 0.07 | 0.11 | 0.11 | 99 | 998.7 |
| 20260831012705 | 58 | 0 | 0.0 | 0.0 | 0.07 | 0.11 | 0.11 | 99 | 999.0 |
| 20260831011805 | 58 | 0 | 0.0 | 0.0 | 0.07 | 0.09 | 0.09 | 99 | 998.7 |
| 20260831010927 | 58 | 0 | 0.0 | 0.0 | 0.07 | 0.08 | 0.08 | 99 | 998.8 |
| 20260831010005 | 58 | 0 | 0.0 | 0.0 | 0.07 | 0.07 | 0.07 | 99 | 998.9 |
| 20260831005403 | 58 | 0 | 0.0 | 0.0 | 0.06 | 0.06 | 0.06 | 99 | 998.8 |
| 20260831004503 | 58 | 0 | 0.0 | 0.0 | 0.05 | 0.05 | 0.05 | 99 | 998.7 |
| 20260831003603 | 58 | 0 | 0.0 | 0.0 | 0.04 | 0.04 | 0.04 | 99 | 998.8 |
| 20260831002704 | 58 | 90 | 0.0 | 2.0 | 0.04 | 0.04 | 0.04 | 99 | 998.9 |
| 20260831001826 | 57 | 90 | 0.0 | 2.0 | 0.02 | 0.02 | 0.02 | 99 | 999.0 |
| 20260831000925 | 58 | 90 | 0.0 | 2.0 | 0.01 | 0.01 | 0.01 | 99 | 998.9 |
| 20260831000005 | 58 | 0 | 0.0 | 0.0 | 0.00 | 0.00 | 0.00 | 99 | 998.8 |
| 20260830235403 | 58 | 0 | 0.0 | 0.0 | 0.00 | 0.00 | 0.00 | 99 | 999.0 |
| 20260830234503 | 58 | 0 | 0.0 | 0.0 | 0.00 | 0.00 | 0.00 | 99 | 998.9 |
| 20260830233603 | 57 | 0 | 0.0 | 0.0 | 0.00 | 0.00 | 0.00 | 99 | 999.0 |
| 20260830232703 | 57 | 0 | 0.0 | 0.0 | 0.00 | 0.00 | 0.00 | 99 | 998.9 |
| 20260830231824 | 57 | 0 | 0.0 | 0.0 | 0.00 | 0.00 | 0.00 | 99 | 998.8 |
| 20260830230904 | 58 | 0 | 0.0 | 0.0 | 0.00 | 0.00 | 0.00 | 99 | 998.7 |
| 20260830230003 | 57 | 0 | 0.0 | 0.0 | 0.00 | 0.00 | 0.00 | 99 | 998.8 |
| 20260830225404 | 58 | 0 | 0.0 | 0.0 | 0.00 | 0.00 | 0.00 | 99 | 998.9 |
| 20260830224503 | 57 | 90 | 0.0 | 2.0 | 0.00 | 0.00 | 0.00 | 99 | 998.8 |
| 20260830223604 | 58 | 90 | 1.0 | 2.0 | 0.00 | 0.00 | 0.00 | 99 | 998.7 |
| 20260830222704 | 57 | 0 | 0.0 | 0.0 | 0.00 | 0.01 | 0.00 | 99 | 998.8 |
| 20260830221826 | 57 | 0 | 0.0 | 0.0 | 0.00 | 0.01 | 0.00 | 99 | 998.6 |
| 20260830220904 | 58 | 0 | 0.0 | 0.0 | 0.00 | 0.01 | 0.00 | 99 | 998.5 |
| 20260830220025 | 58 | 0 | 0.0 | 0.0 | 0.00 | 0.01 | 0.00 | 99 | 998.6 |
| 20260830215403 | 58 | 0 | 0.0 | 0.0 | 0.00 | 0.01 | 0.01 | 99 | 998.5 |
| 20260830214503 | 58 | 0 | 0.0 | 0.0 | 0.00 | 0.01 | 0.01 | 99 | 998.8 |
| 20260830213603 | 58 | 0 | 0.0 | 0.0 | 0.00 | 0.01 | 0.01 | 99 | 998.9 |
| 20260830212703 | 59 | 0 | 0.0 | 0.0 | 0.00 | 0.01 | 0.01 | 99 | 998.8 |
| 20260830211824 | 59 | 0 | 0.0 | 0.0 | 0.00 | 0.01 | 0.01 | 99 | 998.8 |
| 20260830210903 | 58 | 0 | 0.0 | 0.0 | 0.00 | 0.01 | 0.01 | 99 | 998.7 |
| 20260830210024 | 58 | 0 | 0.0 | 0.0 | 0.00 | 0.01 | 0.01 | 98 | 998.8 |
| 20260830205403 | 59 | 0 | 0.0 | 0.0 | 0.00 | 0.01 | 0.01 | 98 | 998.8 |
| 20260830204503 | 59 | 112 | 0.0 | 2.0 | 0.00 | 0.01 | 0.01 | 98 | 998.4 |
| 20260830203605 | 59 | 112 | 0.0 | 2.0 | 0.00 | 0.01 | 0.01 | 97 | 998.9 |
| 20260830202703 | 59 | 112 | 0.0 | 2.0 | 0.00 | 0.01 | 0.01 | 97 | 998.8 |
| 20260830201803 | 60 | 112 | 0.0 | 2.0 | 0.00 | 0.01 | 0.01 | 96 | 998.9 |
| 20260830200903 | 60 | 112 | 1.0 | 2.0 | 0.00 | 0.01 | 0.01 | 96 | 998.9 |
| 20260830200003 | 61 | 112 | 2.0 | 2.0 | 0.00 | 0.01 | 0.01 | 96 | 998.8 |
| 20260830195406 | 61 | 112 | 2.0 | 2.0 | 0.00 | 0.01 | 0.01 | 96 | 998.9 |
| 20260830194503 | 60 | 112 | 1.0 | 2.0 | 0.00 | 0.01 | 0.01 | 96 | 998.7 |
| 20260830193603 | 60 | 0 | 0.0 | 0.0 | 0.00 | 0.01 | 0.01 | 95 | 998.9 |
| 20260830192703 | 60 | 112 | 0.0 | 2.0 | 0.00 | 0.01 | 0.01 | 94 | 998.8 |
| 20260830191805 | 61 | 112 | 0.0 | 2.0 | 0.00 | 0.01 | 0.01 | 94 | 998.7 |
| 20260830190907 | 61 | 112 | 0.0 | 2.0 | 0.00 | 0.01 | 0.01 | 93 | 998.8 |
| 20260830190003 | 62 | 112 | 0.0 | 2.0 | 0.00 | 0.01 | 0.01 | 92 | 998.8 |
| 20260830185403 | 62 | 112 | 0.0 | 2.0 | 0.00 | 0.01 | 0.01 | 91 | 998.8 |
| 20260830184503 | 62 | 126 | 2.0 | 4.0 | 0.00 | 0.01 | 0.01 | 90 | 998.6 |
| 20260830183603 | 63 | 139 | 2.0 | 7.0 | 0.00 | 0.01 | 0.01 | 90 | 998.9 |
| 20260830182705 | 63 | 137 | 2.0 | 6.0 | 0.00 | 0.01 | 0.01 | 89 | 998.7 |
| 20260830181824 | 63 | 151 | 3.0 | 6.0 | 0.00 | 0.01 | 0.01 | 88 | 998.8 |
| 20260830180903 | 63 | 142 | 2.0 | 4.0 | 0.00 | 0.01 | 0.01 | 88 | 998.9 |
| 20260830180003 | 64 | 153 | 3.0 | 6.0 | 0.00 | 0.01 | 0.01 | 87 | 998.9 |
| 20260830175424 | 64 | 156 | 2.0 | 7.0 | 0.00 | 0.01 | 0.01 | 86 | 998.7 |
| 20260830174503 | 64 | 163 | 4.0 | 7.0 | 0.00 | 0.01 | 0.01 | 86 | 998.6 |
| 20260830173603 | 64 | 183 | 4.0 | 11.0 | 0.00 | 0.01 | 0.01 | 85 | 998.7 |
| 20260830172705 | 64 | 161 | 3.0 | 8.0 | 0.00 | 0.01 | 0.01 | 85 | 998.8 |
| 20260830171805 | 65 | 175 | 4.0 | 8.0 | 0.00 | 0.01 | 0.01 | 84 | 998.6 |
| 20260830170903 | 65 | 156 | 4.0 | 8.0 | 0.00 | 0.01 | 0.01 | 83 | 998.7 |
| 20260830170003 | 65 | 147 | 3.0 | 6.0 | 0.00 | 0.01 | 0.01 | 83 | 998.7 |
| 20260830165403 | 65 | 153 | 2.0 | 7.0 | 0.00 | 0.01 | 0.01 | 82 | 998.5 |
| 20260830164524 | 65 | 141 | 3.0 | 7.0 | 0.00 | 0.01 | 0.01 | 82 | 998.6 |
| 20260830163603 | 65 | 166 | 2.0 | 9.0 | 0.00 | 0.01 | 0.01 | 82 | 998.6 |
| 20260830162703 | 65 | 152 | 2.0 | 8.0 | 0.00 | 0.01 | 0.01 | 82 | 998.6 |
| 20260830161803 | 65 | 164 | 4.0 | 11.0 | 0.00 | 0.01 | 0.01 | 82 | 998.7 |
| 20260830160903 | 65 | 170 | 2.0 | 8.0 | 0.00 | 0.01 | 0.01 | 80 | 998.5 |
| 20260830160005 | 65 | 174 | 2.0 | 7.0 | 0.00 | 0.01 | 0.01 | 81 | 998.9 |
| 20260830155403 | 65 | 139 | 2.0 | 7.0 | 0.00 | 0.01 | 0.01 | 82 | 998.8 |
| 20260830154503 | 65 | 175 | 4.0 | 8.0 | 0.00 | 0.01 | 0.01 | 81 | 998.5 |
| 20260830153606 | 65 | 163 | 4.0 | 8.0 | 0.00 | 0.01 | 0.01 | 82 | 998.8 |
| 20260830152705 | 65 | 177 | 3.0 | 11.0 | 0.00 | 0.01 | 0.01 | 81 | 998.9 |
| 20260830151803 | 65 | 179 | 4.0 | 13.0 | 0.00 | 0.01 | 0.01 | 81 | 998.9 |
| 20260830150906 | 65 | 220 | 4.0 | 13.0 | 0.00 | 0.01 | 0.01 | 80 | 998.9 |
| 20260830150026 | 65 | 201 | 8.0 | 14.0 | 0.00 | 0.01 | 0.01 | 79 | 998.8 |
| 20260830145403 | 66 | 198 | 9.0 | 17.0 | 0.00 | 0.01 | 0.01 | 78 | 998.9 |
| 20260830144503 | 67 | 209 | 11.0 | 15.0 | 0.00 | 0.01 | 0.01 | 74 | 999.1 |
| 20260830143605 | 68 | 227 | 6.0 | 16.0 | 0.00 | 0.01 | 0.01 | 70 | 998.8 |
| 20260830142703 | 68 | 173 | 4.0 | 11.0 | 0.00 | 0.01 | 0.01 | 70 | 998.8 |
| 20260830141803 | 69 | 186 | 2.0 | 13.0 | 0.00 | 0.01 | 0.01 | 68 | 998.7 |
| 20260830140903 | 69 | 205 | 5.0 | 13.0 | 0.00 | 0.01 | 0.01 | 68 | 998.8 |
| 20260830140005 | 68 | 202 | 4.0 | 8.0 | 0.00 | 0.01 | 0.01 | 69 | 999.0 |
| 20260830135426 | 69 | 193 | 3.0 | 11.0 | 0.00 | 0.01 | 0.01 | 69 | 998.8 |
| 20260830134503 | 69 | 185 | 6.0 | 8.0 | 0.00 | 0.01 | 0.01 | 68 | 998.8 |
| 20260830133603 | 68 | 178 | 4.0 | 13.0 | 0.00 | 0.01 | 0.01 | 70 | 999.0 |
| 20260830132703 | 68 | 180 | 5.0 | 9.0 | 0.00 | 0.01 | 0.01 | 69 | 998.8 |
| 20260830131804 | 68 | 202 | 4.0 | 15.0 | 0.00 | 0.01 | 0.01 | 70 | 999.0 |
| 20260830130903 | 68 | 187 | 8.0 | 15.0 | 0.00 | 0.01 | 0.01 | 69 | 998.7 |
| 20260830130003 | 69 | 205 | 5.0 | 11.0 | 0.00 | 0.01 | 0.01 | 69 | 998.5 |
| 20260830125405 | 69 | 216 | 5.0 | 11.0 | 0.00 | 0.01 | 0.01 | 67 | 998.6 |
| 20260830124503 | 69 | 218 | 8.0 | 15.0 | 0.00 | 0.01 | 0.01 | 69 | 998.6 |
| 20260830123603 | 68 | 186 | 3.0 | 11.0 | 0.00 | 0.01 | 0.01 | 70 | 998.7 |
| 20260830122703 | 68 | 191 | 2.0 | 8.0 | 0.00 | 0.01 | 0.01 | 72 | 998.8 |
| 20260830121824 | 67 | 197 | 2.0 | 8.0 | 0.00 | 0.01 | 0.01 | 73 | 998.8 |
| 20260830120905 | 67 | 200 | 4.0 | 13.0 | 0.00 | 0.01 | 0.01 | 73 | 998.9 |
| 20260830120024 | 67 | 188 | 4.0 | 11.0 | 0.00 | 0.01 | 0.01 | 73 | 998.9 |
| 20260830115405 | 67 | 171 | 6.0 | 13.0 | 0.00 | 0.01 | 0.01 | 73 | 999.0 |
| 20260830114526 | 67 | 199 | 5.0 | 9.0 | 0.00 | 0.01 | 0.01 | 73 | 999.0 |
| 20260830113626 | 67 | 194 | 4.0 | 11.0 | 0.00 | 0.01 | 0.01 | 72 | 998.9 |
| 20260830112705 | 66 | 201 | 5.0 | 14.0 | 0.00 | 0.01 | 0.01 | 73 | 999.1 |
| 20260830111803 | 67 | 219 | 8.0 | 16.0 | 0.00 | 0.01 | 0.01 | 72 | 999.1 |
| 20260830110903 | 66 | 222 | 4.0 | 14.0 | 0.00 | 0.01 | 0.01 | 72 | 999.3 |
| 20260830110004 | 66 | 232 | 7.0 | 11.0 | 0.00 | 0.01 | 0.01 | 76 | 999.5 |
| 20260830105405 | 65 | 235 | 8.0 | 14.0 | 0.00 | 0.01 | 0.01 | 79 | 999.2 |
| 20260830104503 | 64 | 216 | 8.0 | 14.0 | 0.00 | 0.01 | 0.01 | 80 | 999.3 |
| 20260830103605 | 65 | 229 | 7.0 | 17.0 | 0.00 | 0.01 | 0.01 | 77 | 999.1 |
| 20260830102703 | 65 | 243 | 11.0 | 17.0 | 0.00 | 0.01 | 0.01 | 75 | 999.2 |
| 20260830101803 | 67 | 240 | 8.0 | 14.0 | 0.00 | 0.01 | 0.01 | 75 | 999.1 |
| 20260830100903 | 65 | 255 | 4.0 | 11.0 | 0.00 | 0.01 | 0.01 | 80 | 998.9 |
| 20260830100003 | 65 | 198 | 6.0 | 11.0 | 0.00 | 0.01 | 0.01 | 77 | 999.2 |
| 20260830095403 | 65 | 184 | 4.0 | 11.0 | 0.00 | 0.01 | 0.01 | 80 | 999.4 |
| 20260830094506 | 64 | 189 | 5.0 | 15.0 | 0.00 | 0.01 | 0.01 | 81 | 999.4 |
| 20260830093605 | 65 | 183 | 9.0 | 14.0 | 0.00 | 0.01 | 0.01 | 79 | 999.1 |
| 20260830092724 | 65 | 191 | 7.0 | 14.0 | 0.00 | 0.01 | 0.01 | 79 | 999.3 |
| 20260830091805 | 64 | 188 | 7.0 | 14.0 | 0.00 | 0.01 | 0.01 | 81 | 999.2 |
| 20260830090905 | 64 | 161 | 7.0 | 17.0 | 0.00 | 0.01 | 0.01 | 80 | 999.1 |
| 20260830090004 | 65 | 174 | 8.0 | 14.0 | 0.00 | 0.01 | 0.01 | 78 | 999.2 |
| 20260830085424 | 65 | 180 | 4.0 | 13.0 | 0.00 | 0.01 | 0.01 | 80 | 999.0 |
| 20260830084503 | 64 | 212 | 4.0 | 11.0 | 0.00 | 0.01 | 0.01 | 81 | 999.1 |
| 20260830083603 | 65 | 220 | 4.0 | 11.0 | 0.00 | 0.01 | 0.01 | 82 | 999.2 |
| 20260830082705 | 64 | 205 | 5.0 | 14.0 | 0.00 | 0.01 | 0.01 | 83 | 999.2 |
| 20260830081803 | 63 | 189 | 4.0 | 11.0 | 0.00 | 0.01 | 0.01 | 87 | 999.1 |
| 20260830080903 | 62 | 164 | 8.0 | 11.0 | 0.00 | 0.01 | 0.01 | 88 | 999.2 |
| 20260830080003 | 62 | 204 | 2.0 | 9.0 | 0.00 | 0.01 | 0.01 | 90 | 999.1 |
| 20260830075403 | 61 | 175 | 6.0 | 9.0 | 0.00 | 0.01 | 0.01 | 90 | 999.2 |
| 20260830074505 | 61 | 181 | 5.0 | 11.0 | 0.00 | 0.01 | 0.01 | 90 | 999.4 |
| 20260830073626 | 62 | 169 | 4.0 | 7.0 | 0.00 | 0.01 | 0.01 | 89 | 999.1 |
| 20260830072703 | 61 | 175 | 4.0 | 7.0 | 0.00 | 0.01 | 0.01 | 90 | 999.1 |
| 20260830071803 | 61 | 178 | 4.0 | 8.0 | 0.00 | 0.01 | 0.01 | 90 | 999.2 |
| 20260830070903 | 61 | 171 | 4.0 | 11.0 | 0.00 | 0.01 | 0.01 | 89 | 999.3 |
| 20260830070005 | 61 | 203 | 4.0 | 9.0 | 0.00 | 0.01 | 0.01 | 88 | 999.1 |
| 20260830065405 | 61 | 179 | 4.0 | 9.0 | 0.00 | 0.01 | 0.01 | 88 | 999.4 |
| 20260830064526 | 61 | 198 | 4.0 | 9.0 | 0.00 | 0.01 | 0.01 | 88 | 999.3 |
| 20260830063603 | 62 | 188 | 4.0 | 9.0 | 0.00 | 0.01 | 0.01 | 87 | 999.1 |
| 20260830062703 | 62 | 190 | 4.0 | 9.0 | 0.00 | 0.01 | 0.01 | 88 | 999.1 |
| 20260830061805 | 61 | 180 | 7.0 | 9.0 | 0.00 | 0.01 | 0.01 | 89 | 998.9 |
| 20260830060903 | 61 | 164 | 3.0 | 8.0 | 0.00 | 0.01 | 0.01 | 91 | 998.9 |
| 20260830060003 | 61 | 150 | 5.0 | 7.0 | 0.00 | 0.02 | 0.01 | 91 | 998.8 |
| 20260830055403 | 60 | 135 | 2.0 | 4.0 | 0.00 | 0.02 | 0.01 | 93 | 999.0 |
| 20260830054524 | 60 | 151 | 4.0 | 4.0 | 0.00 | 0.02 | 0.01 | 95 | 999.2 |
| 20260830053604 | 59 | 173 | 3.0 | 7.0 | 0.00 | 0.02 | 0.01 | 96 | 998.8 |
| 20260830052705 | 60 | 190 | 3.0 | 6.0 | 0.00 | 0.02 | 0.01 | 97 | 998.9 |
| 20260830051805 | 59 | 170 | 2.0 | 8.0 | 0.00 | 0.02 | 0.01 | 97 | 999.0 |